Location: Bow
(51.5261°N, 0.0167°W)
Time: 14:46:03
(UTC+00:00)

Ariane Rocket - Pass Details

Date: 18 September 2020
Orbit: 760 x 770 km, 98.7° (Epoch: 27 October)

Event Time Altitude Azimuth Distance (km) Brightness Sun altitude
Exits shadow 19:49:57 - 173° (S) 2,730 5.6 -16.4°
Reaches altitude 10° 19:51:03 10° 175° (S) 2,294 5.2 -16.5°
Maximum altitude 19:56:04 64° 257° (WSW) 847 3.4 -17.2°
Drops below altitude 10° 20:01:09 10° 340° (NNW) 2,317 6.1 -17.9°
Sets 20:03:30 0° 343° (NNW) 3,250 6.9 -18.3°
